Time,TemperatureF,DewpointF,PressureIn,WindDirection,WindDirectionDegrees,WindSpeedMPH,WindSpeedGustMPH,Humidity,HourlyPrecipIn,Conditions,Clouds,dailyrainin,SoftwareType,DateUTC
2013-05-27 00:00:00,63.0,53.0,30.21,WSW,258,0.0,5.0,70,0.00,,,0.00,,2013-05-27 04:00:00,
2013-05-27 00:23:00,63.0,53.0,30.21,WSW,258,0.0,5.0,70,0.00,,,0.00,,2013-05-27 04:23:00,
2013-05-27 00:33:00,63.0,53.0,30.21,WSW,258,0.0,5.0,70,0.00,,,0.00,,2013-05-27 04:33:00,
2013-05-27 00:43:00,63.0,53.0,30.21,WSW,258,0.0,5.0,70,0.00,,,0.00,,2013-05-27 04:43:00,
2013-05-27 00:53:00,63.0,53.0,30.21,WSW,258,0.0,5.0,70,0.00,,,0.00,,2013-05-27 04:53:00,
2013-05-27 02:42:00,60.0,53.0,30.18,West,259,0.0,0.0,79,0.00,,,0.00,,2013-05-27 06:42:00,
2013-05-27 02:52:00,60.0,53.0,30.18,West,259,0.0,0.0,79,0.00,,,0.00,,2013-05-27 06:52:00,
2013-05-27 03:00:00,61.0,56.0,30.18,West,277,0.0,0.0,85,0.00,,,0.00,,2013-05-27 07:00:00,
2013-05-27 03:02:00,60.0,53.0,30.18,West,259,0.0,0.0,79,0.00,,,0.00,,2013-05-27 07:02:00,
2013-05-27 03:11:00,61.0,56.0,30.18,West,277,0.0,0.0,85,0.00,,,0.00,,2013-05-27 07:11:00,
2013-05-27 03:21:00,61.0,56.0,30.18,West,277,0.0,0.0,85,0.00,,,0.00,,2013-05-27 07:21:00,
2013-05-27 03:32:00,61.0,56.0,30.18,West,277,0.0,0.0,85,0.00,,,0.00,,2013-05-27 07:32:00,
2013-05-27 03:42:00,61.0,56.0,30.18,West,277,0.0,0.0,85,0.00,,,0.00,,2013-05-27 07:42:00,
2013-05-27 03:53:00,61.0,56.0,30.18,West,277,0.0,0.0,85,0.00,,,0.00,,2013-05-27 07:53:00,
2013-05-27 04:00:00,61.0,57.0,30.18,West,277,0.0,0.0,87,0.00,,,0.00,,2013-05-27 08:00:00,
2013-05-27 04:22:00,61.0,57.0,30.18,West,277,0.0,0.0,87,0.00,,,0.00,,2013-05-27 08:22:00,
2013-05-27 04:33:00,61.0,57.0,30.18,West,277,0.0,0.0,87,0.00,,,0.00,,2013-05-27 08:33:00,
2013-05-27 04:42:00,61.0,57.0,30.18,West,277,0.0,0.0,87,0.00,,,0.00,,2013-05-27 08:42:00,
2013-05-27 04:52:00,61.0,57.0,30.18,West,277,0.0,0.0,87,0.00,,,0.00,,2013-05-27 08:52:00,
2013-05-27 05:11:00,61.0,56.0,30.18,NNW,333,0.0,0.0,85,0.00,,,0.00,,2013-05-27 09:11:00,
2013-05-27 05:22:00,61.0,56.0,30.18,NNW,333,0.0,0.0,85,0.00,,,0.00,,2013-05-27 09:22:00,
2013-05-27 05:30:00,60.0,55.0,30.18,NNW,332,0.0,0.0,85,0.00,,,0.00,,2013-05-27 09:30:00,
2013-05-27 05:33:00,61.0,56.0,30.18,NNW,333,0.0,0.0,85,0.00,,,0.00,,2013-05-27 09:33:00,
2013-05-27 05:42:00,61.0,56.0,30.18,NNW,333,0.0,0.0,85,0.00,,,0.00,,2013-05-27 09:42:00,
2013-05-27 05:53:00,60.0,55.0,30.18,NNW,332,0.0,0.0,85,0.00,,,0.00,,2013-05-27 09:53:00,
2013-05-27 06:03:00,60.0,55.0,30.18,NNW,332,0.0,0.0,85,0.00,,,0.00,,2013-05-27 10:03:00,
2013-05-27 06:12:00,60.0,55.0,30.18,NNW,332,0.0,0.0,85,0.00,,,0.00,,2013-05-27 10:12:00,
2013-05-27 06:22:00,60.0,55.0,30.18,NNW,332,0.0,0.0,85,0.00,,,0.00,,2013-05-27 10:22:00,
2013-05-27 06:30:00,58.0,54.0,30.21,NNW,332,0.0,0.0,85,0.00,,,0.00,,2013-05-27 10:30:00,
2013-05-27 06:53:00,58.0,54.0,30.21,NNW,332,0.0,0.0,85,0.00,,,0.00,,2013-05-27 10:53:00,
2013-05-27 07:02:00,58.0,54.0,30.21,NNW,332,0.0,0.0,85,0.00,,,0.00,,2013-05-27 11:02:00,
2013-05-27 07:11:00,58.0,54.0,30.21,NNW,332,0.0,0.0,85,0.00,,,0.00,,2013-05-27 11:11:00,
2013-05-27 07:22:00,58.0,54.0,30.21,NNW,332,0.0,0.0,85,0.00,,,0.00,,2013-05-27 11:22:00,
2013-05-27 07:30:00,69.0,51.0,30.21,WNW,289,0.0,0.0,52,0.00,,,0.00,,2013-05-27 11:30:00,
2013-05-27 07:52:00,69.0,51.0,30.21,WNW,289,0.0,0.0,52,0.00,,,0.00,,2013-05-27 11:52:00,
2013-05-27 08:02:00,69.0,51.0,30.21,WNW,289,0.0,0.0,52,0.00,,,0.00,,2013-05-27 12:02:00,
2013-05-27 08:11:00,69.0,51.0,30.21,WNW,289,0.0,0.0,52,0.00,,,0.00,,2013-05-27 12:11:00,
2013-05-27 08:22:00,69.0,51.0,30.21,WNW,289,0.0,0.0,52,0.00,,,0.00,,2013-05-27 12:22:00,
2013-05-27 08:52:00,85.0,54.0,30.21,NE,43,0.0,0.0,35,0.00,,,0.00,,2013-05-27 12:52:00,
2013-05-27 09:00:00,85.0,52.0,30.24,ENE,73,0.0,0.0,32,0.00,,,0.00,,2013-05-27 13:00:00,
2013-05-27 09:02:00,85.0,54.0,30.21,NE,43,0.0,0.0,35,0.00,,,0.00,,2013-05-27 13:02:00,
2013-05-27 09:11:00,85.0,54.0,30.21,NE,43,0.0,0.0,35,0.00,,,0.00,,2013-05-27 13:11:00,
2013-05-27 09:22:00,85.0,52.0,30.24,ENE,73,0.0,0.0,32,0.00,,,0.00,,2013-05-27 13:22:00,
2013-05-27 09:32:00,85.0,52.0,30.24,ENE,73,0.0,0.0,32,0.00,,,0.00,,2013-05-27 13:32:00,
2013-05-27 09:42:00,85.0,52.0,30.24,ENE,73,0.0,0.0,32,0.00,,,0.00,,2013-05-27 13:42:00,
2013-05-27 09:53:00,85.0,52.0,30.24,ENE,73,0.0,0.0,32,0.00,,,0.00,,2013-05-27 13:53:00,
2013-05-27 10:22:00,87.0,56.0,30.21,North,0,0.0,0.0,35,0.00,,,0.00,,2013-05-27 14:22:00,
2013-05-27 10:32:00,87.0,56.0,30.21,North,0,0.0,0.0,35,0.00,,,0.00,,2013-05-27 14:32:00,
2013-05-27 10:42:00,87.0,56.0,30.21,North,0,0.0,0.0,35,0.00,,,0.00,,2013-05-27 14:42:00,
2013-05-27 10:52:00,94.0,51.0,30.21,SE,128,0.0,0.0,23,0.00,,,0.00,,2013-05-27 14:52:00,
2013-05-27 11:00:00,102.0,55.0,30.21,East,100,0.0,0.0,21,0.00,,,0.00,,2013-05-27 15:00:00,
2013-05-27 11:01:00,94.0,51.0,30.21,SE,128,0.0,0.0,23,0.00,,,0.00,,2013-05-27 15:01:00,
2013-05-27 11:11:00,102.0,55.0,30.21,East,100,0.0,0.0,21,0.00,,,0.00,,2013-05-27 15:11:00,
2013-05-27 11:21:00,102.0,55.0,30.21,East,100,0.0,0.0,21,0.00,,,0.00,,2013-05-27 15:21:00,
2013-05-27 11:33:00,102.0,55.0,30.21,East,100,0.0,0.0,21,0.00,,,0.00,,2013-05-27 15:33:00,
2013-05-27 11:43:00,102.0,55.0,30.21,East,100,0.0,0.0,21,0.00,,,0.00,,2013-05-27 15:43:00,
2013-05-27 11:53:00,102.0,55.0,30.21,East,100,0.0,0.0,21,0.00,,,0.00,,2013-05-27 15:53:00,
2013-05-27 12:30:00,107.0,57.0,30.18,WSW,253,0.0,0.0,20,0.00,,,0.00,,2013-05-27 16:30:00,
2013-05-27 12:53:00,107.0,57.0,30.18,WSW,253,0.0,0.0,20,0.00,,,0.00,,2013-05-27 16:53:00,
2013-05-27 13:02:00,107.0,57.0,30.18,WSW,253,0.0,0.0,20,0.00,,,0.00,,2013-05-27 17:02:00,
2013-05-27 13:12:00,107.0,57.0,30.18,WSW,253,0.0,0.0,20,0.00,,,0.00,,2013-05-27 17:12:00,
2013-05-27 13:22:00,107.0,57.0,30.18,WSW,253,0.0,0.0,20,0.00,,,0.00,,2013-05-27 17:22:00,
2013-05-27 13:52:00,92.0,58.0,30.18,South,188,0.0,8.0,32,0.00,,,0.00,,2013-05-27 17:52:00,
2013-05-27 14:02:00,92.0,58.0,30.18,South,188,0.0,8.0,32,0.00,,,0.00,,2013-05-27 18:02:00,
2013-05-27 14:11:00,92.0,58.0,30.18,South,188,0.0,8.0,32,0.00,,,0.00,,2013-05-27 18:11:00,
2013-05-27 14:22:00,93.0,52.0,30.15,SW,220,0.0,3.0,25,0.00,,,0.00,,2013-05-27 18:22:00,
2013-05-27 14:30:00,94.0,55.0,30.15,South,179,0.0,11.0,27,0.00,,,0.00,,2013-05-27 18:30:00,
2013-05-27 14:32:00,93.0,52.0,30.15,SW,220,0.0,3.0,25,0.00,,,0.00,,2013-05-27 18:32:00,
2013-05-27 14:42:00,93.0,52.0,30.15,SW,220,0.0,3.0,25,0.00,,,0.00,,2013-05-27 18:42:00,
2013-05-27 14:52:00,94.0,55.0,30.15,South,179,0.0,11.0,27,0.00,,,0.00,,2013-05-27 18:52:00,
2013-05-27 15:01:00,94.0,55.0,30.15,South,179,0.0,11.0,27,0.00,,,0.00,,2013-05-27 19:01:00,
2013-05-27 15:11:00,94.0,55.0,30.15,South,179,0.0,11.0,27,0.00,,,0.00,,2013-05-27 19:11:00,
2013-05-27 15:22:00,94.0,55.0,30.15,South,179,0.0,11.0,27,0.00,,,0.00,,2013-05-27 19:22:00,
2013-05-27 16:00:00,106.0,57.0,30.12,South,190,7.0,12.0,20,0.00,,,0.00,,2013-05-27 20:00:00,
2013-05-27 16:22:00,106.0,57.0,30.12,South,190,7.0,12.0,20,0.00,,,0.00,,2013-05-27 20:22:00,
2013-05-27 16:32:00,106.0,57.0,30.12,South,190,7.0,12.0,20,0.00,,,0.00,,2013-05-27 20:32:00,
2013-05-27 16:42:00,106.0,57.0,30.12,South,190,7.0,12.0,20,0.00,,,0.00,,2013-05-27 20:42:00,
2013-05-27 16:53:00,106.0,57.0,30.12,South,190,7.0,12.0,20,0.00,,,0.00,,2013-05-27 20:53:00,
2013-05-27 17:43:00,104.0,55.0,30.12,SSW,203,5.0,11.0,20,0.00,,,0.00,,2013-05-27 21:43:00,
2013-05-27 17:53:00,104.0,55.0,30.12,SSW,203,5.0,11.0,20,0.00,,,0.00,,2013-05-27 21:53:00,
2013-05-27 18:03:00,104.0,55.0,30.12,SSW,203,5.0,11.0,20,0.00,,,0.00,,2013-05-27 22:03:00,
2013-05-27 18:13:00,104.0,55.0,30.12,SSW,201,8.0,12.0,20,0.00,,,0.00,,2013-05-27 22:13:00,
2013-05-27 18:23:00,104.0,55.0,30.12,SSW,201,8.0,12.0,20,0.00,,,0.00,,2013-05-27 22:23:00,
2013-05-27 18:30:00,94.0,51.0,30.09,South,186,7.0,13.0,23,0.00,,,0.00,,2013-05-27 22:30:00,
2013-05-27 18:33:00,104.0,55.0,30.12,SSW,201,8.0,12.0,20,0.00,,,0.00,,2013-05-27 22:33:00,
2013-05-27 18:42:00,104.0,55.0,30.12,SSW,201,8.0,12.0,20,0.00,,,0.00,,2013-05-27 22:42:00,
2013-05-27 18:53:00,94.0,51.0,30.09,South,186,7.0,13.0,23,0.00,,,0.00,,2013-05-27 22:53:00,
2013-05-27 19:02:00,94.0,51.0,30.09,South,186,7.0,13.0,23,0.00,,,0.00,,2013-05-27 23:02:00,
2013-05-27 19:12:00,94.0,51.0,30.09,South,186,7.0,13.0,23,0.00,,,0.00,,2013-05-27 23:12:00,
2013-05-27 19:22:00,94.0,51.0,30.09,South,186,7.0,13.0,23,0.00,,,0.00,,2013-05-27 23:22:00,
2013-05-27 19:52:00,88.0,52.0,30.09,South,177,5.0,13.0,29,0.00,,,0.00,,2013-05-27 23:52:00,
2013-05-27 20:00:00,86.0,52.0,30.09,South,177,4.0,9.0,31,0.00,,,0.00,,2013-05-28 00:00:00,
2013-05-27 20:01:00,88.0,52.0,30.09,South,177,5.0,13.0,29,0.00,,,0.00,,2013-05-28 00:01:00,
2013-05-27 20:11:00,88.0,52.0,30.09,South,177,5.0,13.0,29,0.00,,,0.00,,2013-05-28 00:11:00,
2013-05-27 20:22:00,86.0,52.0,30.09,South,177,4.0,9.0,31,0.00,,,0.00,,2013-05-28 00:22:00,
2013-05-27 20:32:00,86.0,52.0,30.09,South,177,4.0,9.0,31,0.00,,,0.00,,2013-05-28 00:32:00,
2013-05-27 20:42:00,86.0,52.0,30.09,South,177,4.0,9.0,31,0.00,,,0.00,,2013-05-28 00:42:00,
2013-05-27 20:52:00,86.0,52.0,30.09,South,177,4.0,9.0,31,0.00,,,0.00,,2013-05-28 00:52:00,
2013-05-27 22:00:00,75.0,52.0,30.12,South,179,0.0,0.0,45,0.00,,,0.00,,2013-05-28 02:00:00,
2013-05-27 22:22:00,75.0,52.0,30.12,South,179,0.0,0.0,45,0.00,,,0.00,,2013-05-28 02:22:00,
2013-05-27 22:32:00,75.0,52.0,30.12,South,179,0.0,0.0,45,0.00,,,0.00,,2013-05-28 02:32:00,
2013-05-27 22:42:00,75.0,52.0,30.12,South,179,0.0,0.0,45,0.00,,,0.00,,2013-05-28 02:42:00,
2013-05-27 22:52:00,75.0,52.0,30.12,South,179,0.0,0.0,45,0.00,,,0.00,,2013-05-28 02:52:00,